Regional Weather Roundup
Issued by NWS

Home | Current Version | Previous Version | Graphics & Text | Print | Product List | Glossary On
Versions: 1 2 3 4 5 6 7 8 9 10 11 12 13 14 15 16 17 18 19 20 21 22 23 24 25 26 27 28 29 30 31 32 33 34 35 36 37 38 39 40 41 42 43 44 45 46 47 48 49 50
000
ASUS45 KTFX 210710
RWRMT
MONTANA REGIONAL WEATHER ROUNDUP
NATIONAL WEATHER SERVICE GREAT FALLS MT
1200 AM MST SAT JAN 21 2017

NOTE: "FAIR" INDICATES FEW OR NO CLOUDS BELOW 12000 FEET WITH NO
SIGNIFICANT WEATHER AND/OR OBSTRUCTIONS TO VISIBILITY.

MTZ001>007-043-210800-
WEST OF THE DIVIDE

CITY           SKY/WX    TMP DP  RH WIND       PRES   REMARKS
KALISPELL      PTCLDY    17  14  88 NW3       29.32S
MISSOULA       CLOUDY    23  22  96 E7        29.34S FOG     WCI  15
BUTTE          CLOUDY     4   0  83 SE3       29.31S
MULLAN PASS    CLOUDY    23  20  88 SE9G17    29.21F WCI  13
ANACONDA         N/A     18  10  73 S6        29.32R WCI   9
DEER LODGE       N/A     19  16  86 S3        29.34S
EUREKA           N/A     19  18  93 CALM      29.35S
HAMILTON         N/A     23  19  86 CALM      29.32
PLAINS           N/A     24  20  85 CALM      29.37S
RONAN            N/A     10   5  80 CALM      29.38F VSB 0
$$

MTZ008-052>055-210800-
SOUTHWEST MONTANA

CITY           SKY/WX    TMP DP  RH WIND       PRES   REMARKS
BOZEMAN        CLOUDY    14   9  80 W6        29.35S WCI   5
DILLON         CLOUDY    19   7  59 SE5       29.31F
W YELLOWSTONE  CLOUDY    16  16 100 CALM      29.34S
ENNIS          MOCLDY    25  16  68 S10G17    29.36F WCI  15
TWIN BRIDGES     N/A     12   2  64 E6        29.40S WCI   3
$$

MTZ009-010-012-014-046-048-049-054-210800-
EAST SLOPES AND CENTRAL MONTANA

CITY           SKY/WX    TMP DP  RH WIND       PRES   REMARKS
CUT BANK       CLEAR     18  16  92 NW7       29.31F WCI   9
GREAT FALLS    CLEAR     24  16  71 SW9       29.32S WCI  14
MALMSTROM AFB  CLEAR     24  19  83 CALM      29.33S
HELENA         CLOUDY    13   9  84 CALM      29.35S
AUGUSTA          N/A     24  20  85 SW5       29.30S
BOWMANS CRNR     N/A     24  17  75 S12       29.28F WCI  13
CHOTEAU          N/A     21  19  93 W5        29.33S
CONRAD           N/A     10   8  92 SE2       29.39F
POWER            N/A     13   9  81 CALM      29.31S
RAYNESFORD       N/A     23  17  80 SE6       29.32F WCI  15
ULM              N/A     24  18  77 MISG      29.32S
$$

MTZ011-013-016-021-045-047-050-051-210800-
NORTH CENTRAL MONTANA

CITY           SKY/WX    TMP DP  RH WIND       PRES   REMARKS
HAVRE          CLEAR     20  18  92 CALM      29.35F
LEWISTOWN      CLEAR     22  17  81 SE6       29.32F WCI  14
CHINOOK          N/A     21  19  93 W3        29.36F
DENTON           N/A     23  19  85 SW9       29.30F WCI  13
FORT BENTON      N/A     27  23  86 MISG      29.35F
GEYSER           N/A     24  17  73 SW8       29.31F WCI  16
GRASS RANGE      N/A     26  24  89 SW10      29.30F WCI  17
JUDITH GAP       N/A     22  17  80 S13       29.32F WCI  10
ROY              N/A     32  26  78 MISG      29.32F
STANFORD         N/A     26  16  66 W5        29.31F
WINIFRED         N/A     28  22  79 W6        29.32F WCI  21
$$

MTZ017>020-022>027-061-062-210800-
NORTHEAST MONTANA

CITY           SKY/WX    TMP DP  RH WIND       PRES   REMARKS
GLASGOW        CLOUDY    24  23  96 NW7       29.33F FOG     WCI  16
JORDAN           N/A     22  19  89 W7        29.34F WCI  13
SIDNEY         CLOUDY    35  29  78 NW7       29.32S WCI  29
WOLF POINT     CLOUDY    29  26  89 SW12      29.33F WCI  19
PLENTYWOOD       N/A     30  27  86 CALM      29.30F
POPLAR           N/A     28  27  93 W8        29.33F WCI  20
$$

MTZ028>42-056>058-210800-
SOUTHCENTRAL AND SOUTHEAST MONTANA

CITY           SKY/WX    TMP DP  RH WIND       PRES   REMARKS
BAKER          CLOUDY    28  26  92 W12       29.34F WCI  18
BILLINGS       CLEAR     26  23  88 SW15      29.35F WCI  14
LIVINGSTON     CLOUDY    16   9  74 NW9       29.34S WCI   4
MILES CITY     FOG       24  23  96 SW6       29.36F VSB 1/4 WCI  17
BIG TIMBER     CLEAR     21  14  73 N3        29.37S
EKALAKA          N/A     31  28  88 SW2       29.38F
FORSYTH          N/A     27  27 100 W3        29.36S
HARLOWTON        N/A     18  14  83 NW14      29.33F WCI   4
LAUREL           N/A     21  14  74 CALM      29.40F
$$

REGIONAL REPORTS...DAKOTAS

CITY           SKY/WX    TMP DP  RH WIND       PRES   REMARKS
WILLISTON      CLOUDY    20  19  96 CALM      29.31F
MINOT          CLOUDY    29  28  96 CALM      29.32S FOG
DICKINSON      CLOUDY    28  25  88 NW9       29.27F WCI  19
BEACH          CLOUDY    32  30  93 W13       29.34F WCI  22
CROSBY           N/A     12  10  92 SW5       29.32F
TIOGA          FOG        9   9 100 W8        29.31F VSB 1/2 WCI  -4
WATFORD CITY   CLOUDY    19  19 100 SW5       29.31F
BISMARCK       CLOUDY    32  30  92 NW5       29.32F FOG
GRAND FORKS    CLOUDY    36  32  85 SE10      29.42F WCI  28
FARGO          CLOUDY    39  35  86 SE13      29.42S WCI  31
BUFFALO SD       N/A     35  32  88 W17       29.26F WCI  25
RAPID CITY     CLOUDY    34  31  88 N18       29.35S WCI  23
$$

REGIONAL REPORTS...WYOMING/IDAHO/WASHINGTON

CITY           SKY/WX    TMP DP  RH WIND       PRES   REMARKS
GILLETTE       CLOUDY    27  24  89 SW3       29.36F
SHERIDAN       CLEAR     22  18  85 VRB5      29.35F
BUFFALO WY     MOCLDY    29  23  78 SW6       29.35F WCI  23
CODY           CLOUDY    21  11  65 VRB3      29.36F
YELLOWSTONE LA   N/A      0  -3  87 CALM      29.36S
IDAHO FALLS    LGT SNOW  20  18  92 N3        29.33F FOG
SALMON         CLOUDY     7   1  78 CALM      29.36S
BOISE          MOCLDY    35  30  82 SE12      29.27S WCI  27
SPOKANE        CLOUDY    35  29  78 NE8       29.23R WCI  29
$$

REGIONAL REPORTS...ALBERTA

CITY           SKY/WX    TMP DP  RH WIND       PRES   REMARKS
EDMONTON       CLEAR     18  10  73 NE2       29.36S VSB 1/8
CALGARY        CLEAR     18  10  73 N3        29.31S
LETHBRIDGE     CLEAR     21  18  86 SW6       29.32S WCI  14
MEDICINE HAT   CLEAR     23  21  93 SW3       29.34S
WATERTON GATE    N/A     21  14  73 SW5         N/A
CARDSTON         N/A     23  14  68 SW6         N/A  WCI  16
MILK RIVER       N/A     19  18  93 NW2         N/A
$$

REGIONAL REPORTS...SASKATCHEWAN

CITY           SKY/WX    TMP DP  RH WIND       PRES   REMARKS
SWIFT CURRENT  CLOUDY    27  23  86 W12       29.28F WCI  16
REGINA         PTCLDY    19  18  93 SE5       29.29S
SASKATOON      CLOUDY    28  27  93 NW7       29.33S WCI  21
VAL MARIE        N/A     19  19 100 W1          N/A
ROCKGLEN         N/A     30  23  74 W10         N/A  WCI  21
ASSINIBOIA       N/A     12  10  92 CALM        N/A
$$



USA.gov is the U.S. government's official web portal to all federal, state and local government web resources and services.